Starlink 2494

operational
NORAD ID: 48487 Int'l Des: 2021-040 Owner: SPXS Country: US Constellation: starlink
LEOCIRCULARSTARLINK_TYPE

关于 Starlink 2494

正在加载描述...

实时位置

正在加载3D地球...

即将过境

高度历史

Altitude vs Time

uPlot chart will show altitude changes over time

两行轨道根数

1 48487U 21040BM 26037.33335648 .00064731 00000-0 21839-2 0 9997
2 48487 53.1603 339.6706 0001391 82.3577 43.4255 15.30123080 5798
Epoch: Feb 6, 2026 • Age: 7 hours

当前状态

高度 476.8 km
速度 7.63 km/s
星下点 -2.44°S, 165.69°E
发射日期 May 9, 2021
运行时间 4.7 years
类型 internet

技术详情

分类 Payload
质量 260.00 kg
干质量 248.00 kg
总质量 260.00 kg
长度 0.20 m
直径 2.80 m
跨度 9.00 m
形状 Box + pan
制造商 SPXS
平台类型 Starlink
阶段状态 In Orbit
所有者/国家 SPXS/US

大型星座

Loading constellations...